Weather History for KLTS - January, 2013

Change the Weather History Date:

Friday, January 4, 2013

  Actual Average Record
Temperature  
Mean Temperature 34 °F -  
Max Temperature 44 °F 49 °F 71 °F (1997)
Min Temperature 25 °F 26 °F 10 °F (1999)
Degree Days  
Heating Degree Days 30    
Moisture  
Dew Point 28 °F    
Average Humidity 75    
Maximum Humidity 92    
Minimum Humidity 48    
Precipitation  
Precipitation 0.00 in - - ()
Sea Level Pressure  
Sea Level Pressure 30.41 in    
Wind  
Wind Speed 5 mph (SSW)    
Max Wind Speed 15 mph    
Max Gust Speed -    
Visibility 10 miles    
Events      
Averages and records for this station are not official NWS values.
T = Trace of Precipitation, MM = Missing Value Source: NWS Daily Summary

Daily Weather History Graph

Daily Weather History Graph

Search for Another Location

Airport or City:

Trip Planner

Search our weather history database for the weather conditions in past years. The results will help you decide how hot, cold, wet, or windy it might be!

Date:

Astronomy

Jan. 04, 2013 Rise Set
Actual Time 7:44 AM CST 5:39 PM CST
Civil Twilight 7:16 AM CST 6:07 PM CST
Nautical Twilight 6:45 AM CST 6:39 PM CST
Astronomical Twilight 6:14 AM CST 7:09 PM CST
Moon No Moon Rise 11:47 AM CST
Length of Visible Light 10h 50m
Length of Day
9h 55m
Waning Gibbous, 55% of the Moon is Illuminated
Jan 4
Waning Gibbous
Jan 4
Last Quarter
Jan 11
New
Jan 18
First Quarter
Jan 26
Full

Hourly Weather History & Observations

Time (CST) Temp. Windchill Dew Point Humidity Pressure Visibility Wind Dir Wind Speed Gust Speed Precip Events Conditions
12:55 AM 28.0 °F - 24.1 °F 85% 30.46 in 10.0 mi Calm Calm - N/A   Clear
1:55 AM 27.1 °F - 24.6 °F 90% 30.45 in 10.0 mi Calm Calm - N/A   Scattered Clouds
2:55 AM 25.5 °F - 23.5 °F 92% 30.47 in 10.0 mi Calm Calm - N/A   Partly Cloudy
3:55 AM 28.8 °F - 23.2 °F 80% 30.46 in 10.0 mi Calm Calm - N/A   Clear
4:55 AM 29.5 °F 25.9 °F 24.1 °F 80% 30.46 in 10.0 mi West 3.5 mph - N/A   Clear
5:55 AM 27.5 °F - 25.2 °F 91% 30.47 in 10.0 mi Calm Calm - N/A   Scattered Clouds
6:55 AM 27.7 °F 22.4 °F 23.9 °F 86% 30.47 in 10.0 mi South 4.6 mph - N/A   Mostly Cloudy
7:55 AM 26.8 °F 22.8 °F 23.9 °F 89% 30.48 in 10.0 mi ESE 3.5 mph - N/A   Mostly Cloudy
8:55 AM 29.5 °F 24.5 °F 25.2 °F 84% 30.49 in 10.0 mi South 4.6 mph - N/A   Overcast
9:55 AM 33.1 °F - 27.1 °F 79% 30.50 in 10.0 mi Calm Calm - N/A   Overcast
10:55 AM 37.6 °F 31.6 °F 26.8 °F 65% 30.49 in 10.0 mi WSW 8.1 mph - N/A   Overcast
11:55 AM 42.6 °F 36.3 °F 27.7 °F 56% 30.46 in 10.0 mi WSW 11.5 mph - N/A   Overcast
12:55 PM 44.1 °F 37.1 °F 25.9 °F 49% 30.43 in 10.0 mi WSW 15.0 mph - N/A   Overcast
1:55 PM 44.2 °F 38.8 °F 25.9 °F 49% 30.40 in 10.0 mi SW 10.4 mph - N/A   Overcast
2:55 PM 44.6 °F 38.4 °F 25.7 °F 48% 30.37 in 10.0 mi SSW 12.7 mph - N/A   Overcast
3:55 PM 43.3 °F 36.5 °F 27.9 °F 54% 30.36 in 10.0 mi South 13.8 mph - N/A   Overcast
4:55 PM 42.1 °F 35.7 °F 29.7 °F 61% 30.35 in 10.0 mi South 11.5 mph - N/A   Overcast
5:55 PM 40.8 °F 36.2 °F 31.1 °F 68% 30.35 in 10.0 mi South 6.9 mph - N/A   Overcast
6:55 PM 39.2 °F 35.0 °F 31.8 °F 75% 30.35 in 10.0 mi South 5.8 mph - N/A   Overcast
7:55 PM 39.0 °F 33.4 °F 32.0 °F 76% 30.35 in 10.0 mi South 8.1 mph - N/A   Overcast
8:22 PM 35.6 °F 29.9 °F 32.0 °F 87% 30.35 in 10.0 mi South 6.9 mph - N/A   Overcast
8:55 PM 36.1 °F 30.6 °F 31.5 °F 83% 30.34 in 10.0 mi South 6.9 mph - N/A   Overcast
9:55 PM 37.0 °F 30.4 °F 31.1 °F 79% 30.32 in 10.0 mi SSW 9.2 mph - N/A   Overcast
10:20 PM 37.4 °F 29.8 °F 30.2 °F 75% 30.32 in 10.0 mi SW 11.5 mph - N/A   Overcast
10:55 PM 37.6 °F 30.0 °F 31.1 °F 77% 30.31 in 10.0 mi SSW 11.5 mph - N/A   Overcast
11:55 PM 37.2 °F 29.6 °F 31.5 °F 80% 30.30 in 10.0 mi South 11.5 mph - N/A   Overcast